This demonstration page uses our WeatherBlox Daily Observations layout. Learn more.

Left ArrowRight Arrow

38.80484, -77.04692

Hourly Observations for August 29, 2022

Temp ( °F °C ) Dew Point ( °F °C ) Humidity (%) Winds ( mph kmh ) Pressure ( in mb ) Visibility ( mi km ) Precip ( " mm )
12:52 am 00:52 Clear 78 25.6 73 22.8 85 85 S 8 13 30.12 1020 10 16 0.00 0.00
1:52 am 01:52 Partly Cloudy 77 25 73 22.8 88 88 SSE 6 9 30.11 1020 10 16 0.00 0.00
2:52 am 02:52 Mostly Cloudy 77 25 73 22.8 88 88 SSE 6 9 30.11 1020 10 16 0.00 0.00
3:08 am 03:08 Mostly Cloudy 77 25 73 22.8 88 88 S 5 7 30.11 1020 10 16 0.00 0.00
3:18 am 03:18 Partly Cloudy 76 24.4 73 22.8 91 91 SSE 5 7 30.11 1020 10 16 0.00 0.00
3:52 am 03:52 Partly Cloudy 76 24.4 73 22.8 91 91 S 6 9 30.11 1020 10 16 0.00 0.00
4:31 am 04:31 Mostly Cloudy 76 24.4 73 22.8 91 91 S 3 6 30.11 1020 10 16 0.00 0.00
4:52 am 04:52 Partly Cloudy 76 24.4 73 22.8 91 91 SE 5 7 30.11 1020 10 16 0.00 0.00
5:45 am 05:45 Mostly Cloudy 76 24.4 73 22.8 91 91 ESE 5 7 30.11 1020 10 16 0.00 0.00
5:52 am 05:52 Mostly Cloudy 76 24.4 73 22.8 91 91 ESE 5 7 30.11 1020 10 16 0.00 0.00
6:02 am 06:02 Mostly Cloudy 76 24.4 73 22.8 91 91 ESE 5 7 30.11 1020 10 16 0.00 0.00
6:28 am 06:28 Partly Cloudy 76 24.4 73 22.8 91 91 SE 5 7 30.11 1020 10 16 0.00 0.00
6:52 am 06:52 Partly Cloudy 75 23.9 73 22.8 94 94 SSE 5 7 30.11 1020 10 16 0.00 0.00
7:28 am 07:28 Mostly Cloudy 76 24.4 74 23.3 94 94 SE 3 6 30.13 1020 10 16 0.00 0.00
7:52 am 07:52 Cloudy 77 25 74 23.3 90 90 SSE 3 6 30.13 1020 10 16 0.00 0.00
8:17 am 08:17 Mostly Cloudy 79 26.1 75 23.9 88 88 S 6 9 30.13 1020 10 16 0.00 0.00
8:33 am 08:33 Partly Cloudy 78 25.6 74 23.3 87 87 SSW 8 13 30.14 1021 10 16 0.00 0.00
8:52 am 08:52 Partly Cloudy 79 26.1 74 23.3 85 85 S 7 11 30.14 1021 10 16 0.00 0.00
9:52 am 09:52 Mostly Sunny 82 27.8 70 21.1 67 67 S 7 11 30.13 1020 10 16 0.00 0.00
10:52 am 10:52 Mostly Sunny 85 29.4 71 21.7 63 63 SSE 5 7 30.14 1021 10 16 0.00 0.00
11:52 am 11:52 Partly Cloudy 87 30.6 71 21.7 59 59 SSE 5 7 30.13 1020 10 16 0.00 0.00
12:52 pm 12:52 Partly Cloudy 89 31.7 71 21.7 56 56 S 9 15 30.11 1020 10 16 0.00 0.00
1:52 pm 13:52 Mostly Sunny 91 32.8 71 21.7 52 52 S 8 13 30.09 1019 10 16 0.00 0.00
2:52 pm 14:52 Mostly Sunny 92 33.3 71 21.7 51 51 S 8 13 30.07 1018 10 16 0.00 0.00
3:52 pm 15:52 Partly Cloudy 91 32.8 71 21.7 52 52 SSW 12 19 30.04 1017 10 16 0.00 0.00
4:52 pm 16:52 Partly Cloudy 91 32.8 70 21.1 50 50 S 14 22 30.01 1016 10 16 0.00 0.00
5:52 pm 17:52 Partly Cloudy 89 31.7 72 22.2 57 57 SSE 12 19 30.01 1016 10 16 0.00 0.00
6:52 pm 18:52 Mostly Cloudy 88 31.1 70 21.1 55 55 S 14 22 30.01 1016 10 16 0.00 0.00
7:52 pm 19:52 Partly Cloudy 84 28.9 71 21.7 65 65 SSE 7 11 30.02 1017 10 16 0.00 0.00
8:52 pm 20:52 Partly Cloudy 83 28.3 70 21.1 65 65 SSE 7 11 30.03 1017 10 16 0.00 0.00
9:52 pm 21:52 Partly Cloudy 82 27.8 71 21.7 69 69 S 12 19 30.03 1017 10 16 0.00 0.00
10:52 pm 22:52 Partly Cloudy 81 27.2 73 22.8 77 77 S 13 20 30.01 1016 10 16 0.00 0.00
11:52 pm 23:52 Partly Cloudy 80 26.7 73 22.8 79 79 SSW 12 19 30.01 1016 10 16 0.00 0.00

Powered by AerisWeather